RJAARJGG

Guest
Details From RJAA - Narita Intl
To RJGG - Chubu Centrair Intl
Flight Number -
Tags Generated
Created
Modified
Stats Distance 184 nm / 341 km
Max Altitude 0 ft / 0 m
Waypoints 2
Social Downloads 1
Likes 0
Share VATSIM

Download

Looking for another format? Having issues loading an existing format? Contact us
Advertisement - Login to hide

Notes

Generated

Route

RJAA RJGG

ID Type Via Altitude Latitude Longitude Leg Dist Tot Dist Heading (true) Name
O RJAA APT - 0 ft / 0 m 35.80271˚ 140.37991˚ - 0 nm - -
O RJGG APT - 0 ft / 0 m 34.87389˚ 136.80168˚ 183 nm 183 nm 253° / 251° -

Altitude Profile

Advertisement - Login to hide

Weather


0- 5 10 15 20 25 30 35+ Temperature / ° C

Clouds and Precipitation
Forecast for 2018-05-27 12:00 UTC. Updated 3 hours ago

Ground ~20,000 ft ~40,000 ft Winds

RJAA

Details ICAO RJAA (NRT)
Name NARITA INTL
Region Japan
Timezone Asia/Tokyo (UTC+9.0)
Stats Elevation 141 ft / 43 m (AMSL)
Location 35.776552° 140.382770°
Runways 2
Magnetic Variation 7.431° W

METAR

RJAA 271400Z 08003KT 050V130 CAVOK 18/16 Q1013 NOSIG

Decode

TAF

TAF RJAA 271105Z 2712/2818 10004KT 9999 FEW015 BKN030 BECMG 2721/2723 22012KT BECMG 2812/2815 16004KT

Decode

Departure Runways

ID Width Length Bearing (true) Bearing (mag) Surface Threshold Offset Overrun Length
16L 196 ft / 60 m 7,162 ft / 2,183 m 149.61° 157.04° Asphalt 190 ft / 58 m 0 ft / 0 m
16R 196 ft / 60 m 13,142 ft / 4,006 m 149.61° 157.04° Asphalt 0 ft / 0 m 410 ft / 125 m
34L 196 ft / 60 m 13,142 ft / 4,006 m 329.62° 337.05° Asphalt 0 ft / 0 m 415 ft / 126 m
34R 196 ft / 60 m 7,162 ft / 2,183 m 329.62° 337.05° Asphalt 190 ft / 58 m 0 ft / 0 m

RJGG

Details ICAO RJGG (NGO)
Name CHUBU CENTRAIR INTL
Region Japan
Timezone Asia/Tokyo (UTC+9.0)
Stats Elevation 15 ft / 5 m (AMSL)
Location 34.858414° 136.805408°
Runways 1
Magnetic Variation 7.610° W

METAR

RJGG 271400Z 13007KT CAVOK 21/18 Q1011 NOSIG

Decode

TAF

TAF RJGG 271105Z 2712/2818 18008KT 9999 FEW030 BECMG 2716/2718 04004KT BECMG 2800/2803 16008KT

Decode

Destination Runways

ID Width Length Bearing (true) Bearing (mag) Surface Threshold Offset Overrun Length
18 197 ft / 60 m 11,511 ft / 3,509 m 168.81° 176.42° Asphalt 0 ft / 0 m 197 ft / 60 m
36 197 ft / 60 m 11,511 ft / 3,509 m 348.81° 356.42° Asphalt 0 ft / 0 m 197 ft / 60 m

Approach Navaids

Runway Type Ident Frequency Range Bearing (true) Bearing (mag) Slope Elevation
18 Localiser ICY 109.70 MHz 25 nm / 46 km 168.79° 176.40° - 12 ft / 4 m (AMSL)
18 Glidescope ICY 109.70 MHz 25 nm / 46 km 176.00° 183.61° 3.00° 12 ft / 4 m (AMSL)
36 Localiser ICX 111.90 MHz 25 nm / 46 km 348.79° 356.40° - 12 ft / 4 m (AMSL)
36 Glidescope ICX 111.90 MHz 25 nm / 46 km 356.00° 3.61° 3.00° 12 ft / 4 m (AMSL)

Popular Alternatives